Location: Asheville, NC
(35.6000°N, 82.5500°W)
Time: 09:16:07
(UTC-05:00)

CUTE-I - Pass Details

Date: 08 January 2018
Orbit: 810 x 826 km, 98.7° (Epoch: 20 January)

Event Time Altitude Azimuth Distance (km) Brightness Sun altitude
Rises 06:30:18 0° 18° (NNE) 3,334 ? -14.0°
Reaches altitude 10° 06:32:42 10° 23° (NNE) 2,399 ? -13.5°
Maximum altitude 06:37:53 53° 100° (E) 986 ? -12.5°
Drops below altitude 10° 06:43:02 10° 177° (S) 2,389 ? -11.5°
Sets 06:45:25 0° 182° (S) 3,319 ? -11.1°
